Location: McCall
(45.0000°N, 116.0000°W)
Time: 05:49:42
(UTC-06:00)

Amateur Radio Satellites - All Passes

Search period start: 30 September 2014 05:19
Search period end: 01 October 2014 05:19
Location: McCall, 45.0000°N, 116.0000°W

Satellite Date Start Highest point End Downlink Frequencies (MHz)
Time Altitude Azimuth
SO-50 30 Sep 05:33:43 05:38:29 64° 238° (WSW) 05:43:18 436.795 FM
OPAL 30 Sep 05:39:50 05:45:04 85° 253° (WSW) 05:50:19 ?
MaSat-1 30 Sep 05:42:00 05:44:28 14° 103° (ESE) 05:46:53 437.345 MHz
AO-7 30 Sep 05:43:04 05:51:03 49° 101° (E) 05:58:59 29.400 - 29.500 MHz
TMSAT-1 30 Sep 05:44:13 05:49:09 40° 292° (WNW) 05:54:03 436.925 FM
ISS 30 Sep 05:53:56 05:57:12 54° 215° (SW) 06:00:27 145.800 FM
ITAMSAT 1 30 Sep 05:59:25 06:01:52 13° 304° (NW) 06:04:18 435.822 SSB
Uribyol 2 30 Sep 06:00:52 06:02:58 12° 305° (NW) 06:05:04 436.500 FM
UOSAT-12 30 Sep 06:07:31 06:11:53 35° 44° (NE) 06:16:11 437.025 FM, 437.400 FM
RS-15 30 Sep 06:11:07 06:21:14 40° 328° (NNW) 06:31:25 29.354 - 29.394 USB, Beacon 29.352 USB
Hamsat 30 Sep 06:24:48 06:26:16 12° 88° (E) 06:27:44 145.90 MHz
Uosat F 30 Sep 06:28:35 06:33:39 82° 286° (WNW) 06:38:42 435.120 FM
STRAND 1 30 Sep 06:40:47 06:45:04 28° 64° (ENE) 06:49:22 ?
JAS-2 30 Sep 06:49:47 06:55:54 38° 97° (E) 07:02:39 435.800 - 435.900 CW/SSB, 435.910 FM
MaSat-1 30 Sep 07:15:34 07:20:27 79° 298° (WNW) 07:25:04 437.345 MHz
OPAL 30 Sep 07:23:00 07:24:40 11° 271° (W) 07:26:21 ?
AO-7 30 Sep 07:36:05 07:43:45 44° 301° (WNW) 07:51:24 29.400 - 29.500 MHz
UOSAT-12 30 Sep 07:47:44 07:52:03 36° 244° (WSW) 07:56:17 437.025 FM, 437.400 FM
Hamsat 30 Sep 07:58:31 08:02:42 67° 286° (WNW) 08:06:51 145.90 MHz
Uosat F 30 Sep 08:09:36 08:11:38 12° 304° (NW) 08:13:40 435.120 FM
STRAND 1 30 Sep 08:19:18 08:24:05 40° 262° (W) 08:28:55 ?
RS-15 30 Sep 08:28:43 08:37:34 27° 2° (N) 08:46:35 29.354 - 29.394 USB, Beacon 29.352 USB
JAS-2 30 Sep 08:34:52 08:40:59 45° 292° (WNW) 08:47:47 435.800 - 435.900 CW/SSB, 435.910 FM
MaSat-1 30 Sep 08:55:08 08:57:37 14° 316° (NW) 09:00:00 437.345 MHz
HO-68 30 Sep 09:11:56 09:15:24 14° 86° (E) 09:18:51 435.675 MHz FM
SO-67 30 Sep 09:15:09 09:18:32 53° 286° (WNW) 09:21:54 435.3500 MHz FM
AO-7 30 Sep 09:31:47 09:34:24 12° 324° (NW) 09:37:00 29.400 - 29.500 MHz
PCSat 30 Sep 09:38:31 09:42:03 18° 105° (ESE) 09:45:34 145.825 MHz
Oscar 11 30 Sep 10:15:04 10:16:16 11° 88° (E) 10:17:29 145.825 FM, Beacon 2401.500 USB
UKube-1 30 Sep 10:41:40 10:45:22 26° 95° (E) 10:49:02 145.840 MHz, 145.915 MHz
RS-15 30 Sep 10:43:20 10:53:45 44° 35° (NE) 11:04:27 29.354 - 29.394 USB, Beacon 29.352 USB
Sapphire 30 Sep 10:53:46 10:59:07 68° 118° (ESE) 11:04:32 437.095 MHz 1200 baud AX-25 AFSK
HO-68 30 Sep 10:57:02 11:04:16 76° 105° (ESE) 11:11:27 435.675 MHz FM
PCSat 30 Sep 11:19:26 11:24:50 73° 303° (WNW) 11:30:18 145.825 MHz
ZACube-1 30 Sep 11:19:57 11:23:42 25° 93° (E) 11:27:23 437.345 MHz
Oscar 11 30 Sep 11:48:39 11:52:59 75° 285° (WNW) 11:57:17 145.825 FM, Beacon 2401.500 USB
FUNcube-1 30 Sep 12:10:38 12:15:14 80° 103° (ESE) 12:19:43 145.950 - 145.970 MHz USB
UKube-1 30 Sep 12:17:41 12:21:34 32° 293° (WNW) 12:25:27 145.840 MHz, 145.915 MHz
Sapphire 30 Sep 12:38:41 12:43:03 24° 318° (NW) 12:47:27 437.095 MHz 1200 baud AX-25 AFSK
HO-68 30 Sep 12:45:43 12:51:17 25° 305° (NW) 12:56:52 435.675 MHz FM
Oscar 16 30 Sep 12:52:50 12:55:53 16° 58° (ENE) 12:58:56 437.025 USB, Beacon 2401.1428
RS-15 30 Sep 12:55:56 13:06:58 73° 241° (WSW) 13:18:28 29.354 - 29.394 USB, Beacon 29.352 USB
ZACube-1 30 Sep 12:55:59 13:00:12 36° 291° (WNW) 13:04:18 437.345 MHz
PCSat 30 Sep 13:05:46 13:09:15 17° 325° (NW) 13:12:44 145.825 MHz
Oscar 19 30 Sep 13:48:46 13:53:40 44° 69° (ENE) 13:58:35 437.125 CW, 437.150 USB
FUNcube-1 30 Sep 13:48:51 13:50:57 13° 301° (WNW) 13:53:02 145.950 - 145.970 MHz USB
JAS-1B 30 Sep 13:50:25 13:57:03 37° 66° (ENE) 14:02:48 435.800 - 435.900 CW/SSB
ITAMSAT 1 30 Sep 13:59:49 14:04:01 26° 63° (ENE) 14:08:15 435.822 SSB
Uribyol 2 30 Sep 14:00:43 14:05:03 28° 64° (ENE) 14:09:25 436.500 FM
Oscar 16 30 Sep 14:29:22 14:34:35 81° 256° (WSW) 14:39:49 437.025 USB, Beacon 2401.1428
AO-27 30 Sep 14:37:04 14:42:05 54° 70° (ENE) 14:47:09 436.795 MHz FM
AO-Echo 30 Sep 14:44:46 14:49:25 70° 73° (ENE) 14:54:08 ?
AO-7 30 Sep 14:55:06 15:00:40 20° 46° (NE) 15:06:14 29.400 - 29.500 MHz
Gurwin Techsat 1B 30 Sep 14:58:14 15:03:11 42° 68° (ENE) 15:08:09 435.225 FM
Saudisat 1A 30 Sep 15:00:51 15:04:55 38° 118° (ESE) 15:09:01 436.775 MHz
RS-15 30 Sep 15:10:48 15:17:20 18° 262° (W) 15:24:02 29.354 - 29.394 USB, Beacon 29.352 USB
TMSAT-1 30 Sep 15:27:04 15:32:13 55° 71° (ENE) 15:37:24 436.925 FM
Oscar 19 30 Sep 15:28:54 15:33:10 26° 266° (W) 15:37:28 437.125 CW, 437.150 USB
MaSat-1 30 Sep 15:29:33 15:32:43 29° 53° (NE) 15:35:29 437.345 MHz
ITAMSAT 1 30 Sep 15:38:19 15:43:16 46° 261° (W) 15:48:16 435.822 SSB
Uribyol 2 30 Sep 15:39:26 15:44:20 42° 262° (W) 15:49:17 436.500 FM
JAS-1B 30 Sep 15:40:27 15:47:39 44° 261° (W) 15:53:48 435.800 - 435.900 CW/SSB
Uosat F 30 Sep 16:06:30 16:10:25 24° 63° (ENE) 16:14:21 435.120 FM
Oscar 16 30 Sep 16:14:00 16:14:44 10° 274° (W) 16:15:29 437.025 USB, Beacon 2401.1428
AO-27 30 Sep 16:18:04 16:21:56 21° 268° (W) 16:25:49 436.795 MHz FM
Oscar 10/S400 30 Sep 16:22:04 16:38:11 32° 149° (SSE) 17:01:46 145.825 - 145.975 CW/USB, Beacon 145.810 USB
AO-Echo 30 Sep 16:26:27 16:28:44 13° 271° (W) 16:31:03 ?
Gurwin Techsat 1B 30 Sep 16:38:46 16:43:17 28° 266° (W) 16:47:49 435.225 FM
Saudisat 1A 30 Sep 16:40:41 16:44:34 30° 317° (NW) 16:48:29 436.775 MHz
AO-7 30 Sep 16:43:55 16:52:10 76° 68° (ENE) 17:00:27 29.400 - 29.500 MHz
MaSat-1 30 Sep 17:06:41 17:08:51 16° 256° (WSW) 17:10:51 437.345 MHz
JAS-2 30 Sep 17:07:19 17:10:31 17° 56° (ENE) 17:13:51 435.800 - 435.900 CW/SSB, 435.910 FM
TMSAT-1 30 Sep 17:08:32 17:12:29 21° 268° (W) 17:16:27 436.925 FM
Hamsat 30 Sep 17:20:22 17:22:13 13° 61° (ENE) 17:24:05 145.90 MHz
KITSAT 1 30 Sep 17:38:27 17:45:50 41° 110° (ESE) 17:53:13 435.175 FM
Uosat F 30 Sep 17:44:06 17:48:55 48° 260° (W) 17:53:46 435.120 FM
OPAL 30 Sep 17:48:48 17:52:37 21° 94° (E) 17:56:22 ?
Sapphire 30 Sep 17:57:17 18:01:02 18° 37° (NE) 18:04:46 437.095 MHz 1200 baud AX-25 AFSK
PCSat 30 Sep 18:22:35 18:27:10 27° 43° (NE) 18:31:43 145.825 MHz
AO-7 30 Sep 18:39:08 18:45:42 26° 267° (W) 18:52:19 29.400 - 29.500 MHz
JAS-2 30 Sep 18:49:47 18:54:56 74° 257° (WSW) 19:00:25 435.800 - 435.900 CW/SSB, 435.910 FM
Hamsat 30 Sep 18:53:16 18:57:36 75° 258° (WSW) 19:01:55 145.90 MHz
OPAL 30 Sep 19:26:50 19:31:49 53° 292° (WNW) 19:36:42 ?
KITSAT 1 30 Sep 19:33:09 19:41:02 55° 312° (NW) 19:48:58 435.175 FM
Sapphire 30 Sep 19:39:51 19:45:19 82° 58° (ENE) 19:50:45 437.095 MHz 1200 baud AX-25 AFSK
HO-68 30 Sep 19:43:47 19:47:48 16° 48° (NE) 19:51:49 435.675 MHz FM
SO-67 30 Sep 19:49:27 19:52:52 62° 75° (ENE) 19:56:17 435.3500 MHz FM
SO-50 30 Sep 19:51:09 19:54:52 26° 114° (ESE) 19:58:40 436.795 FM
PCSat 30 Sep 20:05:37 20:10:58 60° 243° (WSW) 20:16:16 145.825 MHz
STRAND 1 30 Sep 20:27:27 20:32:33 58° 101° (E) 20:37:37 ?
Oscar 11 30 Sep 21:12:04 21:14:01 13° 60° (ENE) 21:15:59 145.825 FM, Beacon 2401.500 USB
Sapphire 30 Sep 21:24:57 21:28:02 15° 256° (WSW) 21:31:06 437.095 MHz 1200 baud AX-25 AFSK
HO-68 30 Sep 21:27:12 21:34:16 69° 69° (ENE) 21:41:23 435.675 MHz FM
SO-50 30 Sep 21:30:54 21:35:12 43° 313° (NW) 21:39:39 436.795 FM
KITSAT 1 30 Sep 21:32:38 21:38:28 21° 338° (NNW) 21:44:20 435.175 FM
FUNcube-1 30 Sep 21:36:25 21:37:24 11° 57° (ENE) 21:38:24 145.950 - 145.970 MHz USB
UKube-1 30 Sep 21:39:03 21:42:50 30° 67° (ENE) 21:46:38 145.840 MHz, 145.915 MHz
Saudisat 1A 30 Sep 21:47:16 21:49:17 13° 29° (NNE) 21:51:17 436.775 MHz
AO-40 30 Sep 21:53:57 00:39:38 30° 199° (SSW) 05:19:04 Beacon 2401.320
UOSAT-12 30 Sep 22:00:14 22:04:36 43° 118° (ESE) 22:09:04 437.025 FM, 437.400 FM
STRAND 1 30 Sep 22:07:33 22:11:19 21° 299° (WNW) 22:15:04 ?
ZACube-1 30 Sep 22:18:15 22:22:03 26° 66° (ENE) 22:25:54 437.345 MHz
ISS 30 Sep 22:38:12 22:40:24 17° 134° (SE) 22:42:37 145.800 FM
Oscar 11 30 Sep 22:45:15 22:49:37 75° 258° (WSW) 22:54:00 145.825 FM, Beacon 2401.500 USB
FUNcube-1 30 Sep 23:08:26 23:12:59 80° 75° (ENE) 23:17:37 145.950 - 145.970 MHz USB
UKube-1 30 Sep 23:15:17 23:19:00 28° 264° (W) 23:22:45 145.840 MHz, 145.915 MHz
SO-50 30 Sep 23:15:27 23:17:01 12° 335° (NNW) 23:18:36 436.795 FM
HO-68 30 Sep 23:16:56 23:22:33 25° 268° (W) 23:28:12 435.675 MHz FM
Saudisat 1A 30 Sep 23:25:26 23:29:49 57° 51° (NE) 23:34:09 436.775 MHz
KITSAT 1 30 Sep 23:32:37 23:37:31 17° 8° (N) 23:42:25 435.175 FM
UOSAT-12 30 Sep 23:40:46 23:44:54 30° 318° (NW) 23:49:06 437.025 FM, 437.400 FM
ZACube-1 30 Sep 23:54:07 23:58:17 36° 264° (W) 00:02:34 437.345 MHz
ISS 01 Oct 00:13:25 00:16:45 77° 331° (NNW) 00:20:05 145.800 FM
FUNcube-1 01 Oct 00:48:29 00:49:58 11° 273° (W) 00:51:27 145.950 - 145.970 MHz USB
Saudisat 1A 01 Oct 01:05:57 01:08:59 18° 248° (WSW) 01:12:00 436.775 MHz
RS-15 01 Oct 01:17:36 01:21:59 13° 95° (E) 01:26:20 29.354 - 29.394 USB, Beacon 29.352 USB
KITSAT 1 01 Oct 01:28:44 01:35:54 33° 37° (NE) 01:43:01 435.175 FM
ISS 01 Oct 01:50:53 01:53:48 27° 351° (N) 01:56:44 145.800 FM
Oscar 19 01 Oct 02:00:13 02:02:29 13° 88° (E) 02:04:45 437.125 CW, 437.150 USB
Oscar 16 01 Oct 02:39:31 02:44:05 31° 95° (E) 02:48:36 437.025 USB, Beacon 2401.1428
SO-50 01 Oct 02:40:54 02:42:51 12° 26° (NNE) 02:44:48 436.795 FM
AO-27 01 Oct 02:49:18 02:52:33 16° 90° (E) 02:55:47 436.795 MHz FM
AO-Echo 01 Oct 02:50:20 02:54:01 20° 92° (E) 02:57:45 ?
Gurwin Techsat 1B 01 Oct 03:13:56 03:16:36 14° 88° (E) 03:19:16 435.225 FM
RS-15 01 Oct 03:21:07 03:31:53 63° 116° (ESE) 03:42:35 29.354 - 29.394 USB, Beacon 29.352 USB
JAS-1B 01 Oct 03:22:07 03:27:31 42° 99° (E) 03:33:16 435.800 - 435.900 CW/SSB
KITSAT 1 01 Oct 03:24:01 03:32:06 78° 240° (WSW) 03:40:09 435.175 FM
ISS 01 Oct 03:28:11 03:31:09 29° 11° (N) 03:34:07 145.800 FM
Oscar 19 01 Oct 03:37:19 03:42:30 83° 286° (WNW) 03:47:37 437.125 CW, 437.150 USB
TMSAT-1 01 Oct 03:41:51 03:45:32 19° 91° (E) 03:49:11 436.925 FM
ITAMSAT 1 01 Oct 03:48:53 03:54:02 55° 101° (E) 03:59:09 435.822 SSB
Uribyol 2 01 Oct 03:49:46 03:54:58 59° 101° (E) 04:00:07 436.500 FM
Oscar 16 01 Oct 04:18:46 04:23:28 36° 293° (WNW) 04:28:08 437.025 USB, Beacon 2401.1428
SO-50 01 Oct 04:19:59 04:24:37 45° 48° (NE) 04:29:17 436.795 FM
AO-27 01 Oct 04:27:21 04:32:34 69° 288° (WNW) 04:37:45 436.795 MHz FM
AO-Echo 01 Oct 04:28:12 04:33:05 54° 289° (WNW) 04:38:05 ?
AO-7 01 Oct 04:44:29 04:50:24 21° 90° (E) 04:56:17 29.400 - 29.500 MHz
UOSAT-12 01 Oct 04:48:44 04:51:31 15° 31° (NNE) 04:54:18 437.025 FM, 437.400 FM
Gurwin Techsat 1B 01 Oct 04:51:53 04:57:14 82° 286° (WNW) 05:02:32 435.225 FM
ISS 01 Oct 05:04:48 05:08:09 89° 209° (SSW) 05:11:28 145.800 FM
OPAL 01 Oct 05:04:57 05:09:56 48° 67° (ENE) 05:14:57 ?
